JILIN-01 GAOFEN 2D (49256 NORAD) Tracking and Keplerian Element Data

This shows tracking and keplerian element data for the satellite.

Feedback or suggestion? Click here.




ElementValue
Catalog49256
NameJILIN-01 GAOFEN 2D
Epoch Orbit1055
Epoch Day340.20129093
Epoch Year2021
RAAN84.9081
Inclination97.5445
Eccentricity0.0012959
Argument of Perigee34.7238
Mean Anonmoly54.1258
Mean Motion15.09391543
Decay Rate8.27E-06
L11 49256U 21086A 21340.20129093 .00000827 00000+0 55626-4 0 9993
L22 49256 97.5445 84.9081 0012959 34.7238 54.1258 15.09391543 10551

Live tracking and technical data element details for JILIN-01 GAOFEN 2D (NORAD 49256). JILIN-01 GAOFEN 2D can be tracked NOW for your location showing map with azimuth and elevation plus other details from your city location.

Track the satellite on the map from your city or location and see movement details for azimuth, elevation, latitude, longitude, range, height, and movement on the map or in text.







IsCatalogInMostPopularTable: catalog: 49256, numindb: 11
Update: records affected: 1



GetName: 49256 JILIN-01 GAOFEN 2D

Hit Count: updated at: Mon, 06 Dec 2021 14:19:37 GMT